Location: Alpine
(43.1636°N, 111.0180°W)
Time: 04:27:29
(UTC+00:00)

Tiros 1 despin weight - Pass Details

Date: 05 June 2022
Orbit: 591 x 639 km, 48.2° (Epoch: 30 June)

Event Time Altitude Azimuth Distance (km) Brightness Sun altitude
Rises 23:08:17 0° 265° (W) 2,908 ? 39.5°
Reaches altitude 10° 23:10:41 10° 271° (W) 1,995 ? 39.0°
Maximum altitude 23:15:09 51° 347° (NNW) 776 ? 38.2°
Drops below altitude 10° 23:19:34 10° 65° (ENE) 1,967 ? 37.4°
Sets 23:21:55 0° 70° (ENE) 2,864 ? 37.0°
